Regional Weather Roundup
Issued by NWS

Home | Current Version | Previous Version | Text Only | Print | Product List | Glossary On
Versions: 1 2 3 4 5 6 7 8 9 10 11 12 13 14 15 16 17 18 19 20 21 22 23 24 25 26 27 28 29 30 31 32 33 34 35 36 37 38 39 40 41 42 43 44 45 46 47 48 49 50
000
ASUS43 KMPX 301701
RWRMN
WEATHER ROUNDUP FOR MINNESOTA
NATIONAL WEATHER SERVICE TWIN CITIES/CHANHASSEN MN
1200 PM CDT WED JUL 30 2014


NOTE: "FAIR" INDICATES FEW OR NO CLOUDS BELOW 12,000 FEET WITH NO
SIGNIFICANT WEATHER AND/OR OBSTRUCTIONS TO VISIBILITY. N/A MEANS
CURRENT SKY AND/OR WEATHER CONDITIONS ARE NOT AVAILABLE.

MNZ060>063-068>070-301800-
   Twin Cities Metro

CITY           SKY/WX    TMP DP  RH WIND       PRES   REMARKS
TWIN CITIES    SUNNY     77  57  50 W5        30.09F
ST PAUL        SUNNY     76  58  53 VRB3      30.09S
CRYSTAL        SUNNY     77  59  53 NW8       30.08S
BLAINE         SUNNY     75  61  60 W3        30.09S
LAKEVILLE      SUNNY     75  61  60 W3        30.10S
EDEN PRAIRIE   SUNNY     78  60  53 N7        30.09S
SOUTH ST PAUL  SUNNY     75  59  56 NW5       30.09S
LAKE ELMO      FAIR      73  61  64 NW3       30.10S
$$
MNZ001>005-007-008-013>017-022>024-027-028-301800-
   Northwest Minnesota

CITY           SKY/WX    TMP DP  RH WIND       PRES   REMARKS
BEMIDJI        SUNNY     74  56  51 NW16      30.11S
HALLOCK        SUNNY     75  55  50 NW6       30.10S
ROSEAU         SUNNY     75  61  60 NW10      30.09S
WARROAD        SUNNY     75  59  57 NW9       30.09R
THIEF RVR FALL SUNNY     73  57  56 NW9       30.12S
CROOKSTON      SUNNY     73  57  56 N6        30.12F
FOSSTON        SUNNY     73  57  56 NW8       30.13S
DETROIT LAKES  SUNNY     73  55  53 N9        30.15S
MOORHEAD       SUNNY     73  57  56 NW5       30.14S
PARK RAPIDS    SUNNY     75  53  46 NW12      30.11S
$$
MNZ006-009>011-018-025>026-301800-
   North Central Minnesota

CITY           SKY/WX    TMP DP  RH WIND       PRES   REMARKS
BAUDETTE       SUNNY     75  57  53 NW16      30.08S
FLAG ISLAND    SUNNY     73  57  56 NW13      30.05S
INTL FALLS     SUNNY     75  59  57 NW16      30.03F
WASKISH        SUNNY     75  59  57 CALM      30.08S
BIG FORK       SUNNY     75  57  53 NW2       30.07S
LONGVILLE      SUNNY     72  59  64 NW10      30.10S
GRAND RAPIDS   SUNNY     72  57  60 NW8       30.07F
CRANE LAKE     SUNNY     70  63  78 NW6       30.03F
ORR            SUNNY     72  57  60 W12       30.02S
COOK           SUNNY     72  61  68 W12       30.04S
$$
MNZ012-019>021-037-301800-
   Northeast Minnesota

CITY           SKY/WX    TMP DP  RH WIND       PRES   REMARKS
DULUTH         PTSUNNY   72  59  63 W12       30.05F
ELY            MOSUNNY   70  59  68 NW7       30.02F
HIBBING        MOSUNNY   75  60  59 NW13      30.05S
EVELETH        SUNNY     72  59  64 NW10      30.05S
DULUTH HARBOR  SUNNY     72  63  73 SW8       30.04F
TWO HARBORS    LGT RAIN  68  59  73 W7        30.03S
SILVER BAY     SUNNY     72  61  68 W5        30.00F
GRAND MARAIS     N/A     55  49  80 W5        29.99F
G MARAIS ARPRT SUNNY     68  52  56 SW6       30.01F
$$
MNZ029>031-032-039>041-046>048-054>057-064-301800-
   West Central Minnesota

CITY           SKY/WX    TMP DP  RH WIND       PRES   REMARKS
FERGUS FALLS   SUNNY     73  52  46 N8        30.13F
WHEATON        SUNNY     72  55  56 NW6       30.16S
MORRIS         SUNNY     75  57  53 NW8       30.14S
ALEXANDRIA     SUNNY     75  55  49 NW10      30.15S
ELBOW LAKE     FAIR      72  58  62 NW7       30.14S
WADENA         SUNNY     73  55  53 NW10G16   30.12F
GLENWOOD       SUNNY     75  57  53 NW9       30.14F
APPLETON       SUNNY     77  54  44 N7        30.13F
BENSON         SUNNY     75  57  53 N8        30.14S
ORTONVILLE     SUNNY     75  54  46 N3        30.14F
MADISON        SUNNY     77  57  50 N8        30.14F
WILLMAR        FAIR      75  55  50 N8        30.14F
$$
MNZ033>034-036-042>043-049>051-058-059-301800-
   Central Minnesota

CITY           SKY/WX    TMP DP  RH WIND       PRES   REMARKS
ST CLOUD       SUNNY     79  55  43 N9        30.10S
SAUK CENTRE    FAIR      74  56  53 NW8       30.13S
PAYNESVILLE    SUNNY     74  52  46 W10       30.12F
AITKIN         SUNNY     77  63  61 CALM      30.07F
PINE RIVER     SUNNY     73  57  56 NW9       30.13S
BRAINERD       SUNNY     74  56  53 NW9       30.10S
STAPLES        SUNNY     75  55  50 NW9       30.11F
LONG PRAIRIE   FAIR      72  55  56 NW8       30.13F
LITTLE FALLS   SUNNY     73  52  46 W8        30.11S
LITCHFIELD     SUNNY     75  57  53 NW9       30.12F
BUFFALO        SUNNY     75  58  56 W9        30.11F
MAPLE LAKE     SUNNY     76  61  60 NW6       30.11F
$$
MNZ037-044-045-052-053-301800-
   East Central Minnesota

CITY           SKY/WX    TMP DP  RH WIND       PRES   REMARKS
PRINCETON      SUNNY     79  59  50 W8        30.09F
MORA           SUNNY     73  57  56 NW7       30.10S
CAMBRIDGE      SUNNY     77  61  57 W8        30.07F
RUSH CITY      SUNNY     73  60  64 W6        30.09S
MOOSE LAKE     SUNNY     72  61  68 W6        30.05F
HINCKLEY       FAIR      72  61  68 W6        30.08F
CLOQUET        SUNNY     73  57  56 W10       30.06F
MCGREGOR       SUNNY     73  59  60 NW8       30.07F
$$
MNZ071>073-080-081-089-090-097-098-301800-
   Southwest Minnesota

CITY           SKY/WX    TMP DP  RH WIND       PRES   REMARKS
MONTEVIDEO     SUNNY     75  59  57 N7        30.15S
GRANITE FALLS  SUNNY     74  57  55 NW9       30.16S
CANBY          SUNNY     76  52  43 NW9       30.16S
MARSHALL       SUNNY     73  55  53 N9        30.14F
REDWOOD FALLS  SUNNY     77  56  48 N7        30.13F
OLIVIA         SUNNY     73  55  53 NW7       30.13S
PIPESTONE      MOSUNNY   73  52  46 N5        30.17S
WINDOM         SUNNY     73  55  53 NW10      30.16S
WORTHINGTON    MOSUNNY   73  54  49 N8        30.18S
JACKSON        MOSUNNY   73  55  53 NW6       30.16S
TRACY          SUNNY     74  57  56 N6        30.16S
SLAYTON        MOSUNNY   73  53  49 CALM      30.17F
$$
MNZ065>067-074>077-082>085-091>093-301800-
   South Central Minnesota

CITY           SKY/WX    TMP DP  RH WIND       PRES   REMARKS
MANKATO        SUNNY     75  57  53 NW9       30.12S
NEW ULM        SUNNY     75  59  57 W10       30.12F
ST JAMES       SUNNY     77  57  50 W9        30.14S
FAIRMONT       SUNNY     75  55  50 NW9       30.14S
GLENCOE        SUNNY     76  54  46 W7        30.11S
FARIBAULT      SUNNY     79  54  41 W6        30.11S
OWATONNA       SUNNY     75  57  53 NW6       30.11F
WASECA         SUNNY     73  55  53 W7        30.13S
ALBERT LEA     SUNNY     75  57  53 NW6       30.12S
$$
MNZ078>079-086>088-094>096-301800-
   Southeast Minnesota

CITY           SKY/WX    TMP DP  RH WIND       PRES   REMARKS
ROCHESTER      SUNNY     74  59  59 VRB3      30.12F
RED WING       SUNNY     75  61  60 SW5       30.08F
STANTON        SUNNY     74  58  57 W6        30.09S
DODGE CENTER   SUNNY     73  57  56 NW8       30.11F
WINONA         SUNNY     73  55  53 NW7       30.09S
AUSTIN           N/A     73  57  56 NW5       30.11S
PRESTON        SUNNY     71  63  77 N7        30.11F
$$
ABBREVIATIONS USED IN REMARKS
   TC - TEMPERATURES IN CELSIUS
  WCI - WIND CHILL INDEX
   HX - HEAT INDEX
  VSB - VISIBILITY
$$



USA.gov is the U.S. government's official web portal to all federal, state and local government web resources and services.